Regional Weather Roundup
Issued by NWS

Home | Current Version | Previous Version | Graphics & Text | Print | Product List | Glossary On
Versions: 1 2 3 4 5 6 7 8 9 10 11 12 13 14 15 16 17 18 19 20 21 22 23 24 25 26 27 28 29 30 31 32 33 34 35 36 37 38 39 40 41 42 43 44 45 46 47 48 49 50
000
ASUS43 KLMK 060702
RWRKY
KENTUCKY REGIONAL WEATHER ROUNDUP
NATIONAL WEATHER SERVICE LOUISVILLE KY
300 AM EDT WED MAY 06 2015

NOTE "FAIR" INDICATES FEW OR NO CLOUDS BELOW 12,000 FEET
WITH NO SIGNIFICANT WEATHER AND/OR OBSTRUCTIONS TO VISIBILITY.

KYZ001>023-026-027-061>063-070>075-060800-
WESTERN AND SOUTH CENTRAL KENTUCKY

CITY           SKY/WX    TMP DP  RH WIND       PRES   REMARKS
PADUCAH        CLEAR     60  55  83 SE3       30.15F
HENDERSON      CLEAR     59  52  77 CALM      30.17F
OWENSBORO      CLEAR     64  57  78 CALM      30.18F
HOPKINSVILLE   NOT AVBL
BOWLING GREEN  PTCLDY    61  56  83 E3        30.20F
GLASGOW        NOT AVBL
$$

KYZ024-025-028>034-038-045-046-053-060800-
NORTH CENTRAL KENTUCKY

CITY           SKY/WX    TMP DP  RH WIND       PRES   REMARKS
LOUISVILLE/SDF PTCLDY    64  56  75 SE3       30.20R
LOUISVILLE/LOU CLEAR     62  55  77 CALM      30.20S
FORT KNOX      NOT AVBL
$$

KYZ035>037-039>044-047>052-055>060-089>105-060800-
NORTHEAST KENTUCKY

CITY           SKY/WX    TMP DP  RH WIND       PRES   REMARKS
LEXINGTON      CLEAR     61  55  81 S5        30.22F
COVINGTON      PTCLDY    65  53  65 CALM      30.20S
FRANKFORT      CLEAR     57  52  83 CALM      30.20F
$$

KYZ054-064>069-076>088-106>120-060800-
SOUTHEAST KENTUCKY

CITY           SKY/WX    TMP DP  RH WIND       PRES   REMARKS
JACKSON        CLEAR     63  52  67 SW3       30.23F
LONDON         MOCLDY    59  52  77 CALM      30.22F
SOMERSET       NOT AVBL
MIDDLESBORO    CLOUDY    58  55  91 CALM      30.25F
MONTICELLO     SUNNY     56  56 100 CALM      30.25F
$$



USA.gov is the U.S. government's official web portal to all federal, state and local government web resources and services.